Back to catalog

FENGYUN 1C DEB

AliveSSO
NORAD 31269·DEBRIS·🇨🇳 China

Launched May 10, 1999 from Taiyuan Satellite Launch Center

Loading…

Next Passes (next 24 hours)

TLE

FreshSource: Space-Track

Epoch: Sep 13, 2026, 21:28 UTC

1 31269U 99025BNB 26256.89482574  .00003408  00000-0  68101-3 0  9998
2 31269  98.1500 129.9958 0230778 154.7638 221.1790 14.46990017  4535

Track FENGYUN 1C DEB in real time with AllMySat

Download on the App Store